Location: Kaseke
(18.0171°S, 31.0526°E)
Time: 12:50:51
(UTC+00:00)

Envisat - Pass Details

Date: 14 July 2020
Orbit: 764 x 766 km, 98.1° (Epoch: 08 August)

Event Time Altitude Azimuth Distance (km) Brightness Sun altitude
Rises 03:57:00 0° 1° (N) 3,210 6.5 -7.6°
Reaches altitude 10° 03:59:21 10° 355° (N) 2,290 5.7 -7.1°
Maximum altitude 04:04:13 49° 281° (W) 980 3.3 -6.0°
Drops below altitude 10° 04:09:09 10° 206° (SSW) 2,314 5.1 -4.9°
Sets 04:11:33 0° 200° (SSW) 3,246 5.8 -4.4°
